Regional Weather Roundup
Issued by NWS Wakefield, VA

Current Version | Previous Version | Text Only | Print | Product List | Glossary Off
Versions: 1 2 3 4 5 6 7 8 9 10 11 12 13 14 15 16 17 18 19 20 21 22 23 24 25 26 27 28 29 30 31 32 33 34 35 36 37 38 39 40 41 42 43 44 45 46 47 48 49 50

087
ASUS41 KAKQ 300715
RWRAKQ

REGIONAL WEATHER ROUNDUP
NATIONAL WEATHER SERVICE WAKEFIELD VA
300 AM EDT MON MAY 30 2016

Note: "fair" indicates few or no clouds below 12,000 feet with no
significant weather and/or obstructions to visibility. * = Denotes
station may not report precipitation (e.g., rain,snow,etc.),
thunder or fog.

VAZ042-051-052>054-056-300800-
NORTHERN VIRGINIA

CITY           SKY/WX    TMP DP  RH WIND       PRES   REMARKS
WASH NATIONAL  CLOUDY    70  65  84 CALM      30.03F
DULLES         MOCLDY    68  63  84 CALM      30.04S
FORT BELVOIR   CLOUDY    68  66  94 CALM      30.02F
QUANTICO       MOCLDY    70  66  87 N3        30.03F
FREDERICKSBRG* MOCLDY    67  67 100 CALM      30.01F
STAFFORD*      CLOUDY    65  64  95 NW5       30.06F
WARRENTON      CLOUDY    67  62  86 CALM      30.03S
CULPEPER*      CLOUDY    65  65 100 CALM      30.05S
MANASSAS*      CLOUDY    66  66 100 CALM      30.04S
LEESBURG*      CLOUDY    68  66  94 CALM      30.04F
WINCHESTER     LGT RAIN  63  61  94 SW5       30.05S
FRONT ROYAL*   CLOUDY    63  63 100 S5        30.05F
LURAY*         CLOUDY    63  63 100 SW5       30.06F
$$

VAZ048-049-060>072-079>083-300800-
CENTRAL AND SOUTH CENTRAL VIRGINIA

CITY           SKY/WX    TMP DP  RH WIND       PRES   REMARKS
RICHMOND       CLOUDY    67  66  97 CALM      30.01F
CHESTERFIELD*  CLOUDY    68  57  68 CALM      30.03F
PETERSBURG*    CLOUDY    70  70 100 CALM      30.02F
HANOVER        FAIR      66  64  93 CALM      30.03F FOG
TAPPAHANNOCK*  CLOUDY    71  71 100 CALM      30.02F FOG
QUINTON*       CLOUDY    68  68 100 CALM      30.01F FOG
CHARLOTTSVILLE CLOUDY    63  60  90 S3        30.05S
GORDONSVILLE*  FAIR      62  62  99 CALM      30.03F
ORANGE*        CLOUDY    63  63 100 CALM      30.06S
LOUISA*        CLOUDY    68  66  94 NW5       30.03F
BUMPASS*       CLOUDY    64  64  99 CALM      30.03F
FARMVILLE*     CLOUDY    65  65 100 NW3       30.03S
CREWE*         CLOUDY    65  65 100 CALM      30.02F
FORT PICKETT*  NOT AVBL
CHASE CITY*    CLOUDY    66  64  94 CALM      30.02F
CLARKSVILLE*   CLOUDY    64  64 100 CALM      30.02F
SOUTH HILL*    CLOUDY    68  68 100 CALM      30.08S VSB 1
LAWRENCEVILLE* CLOUDY    69  69 100 NW5       30.02S
EMPORIA*       CLOUDY    70  70 100 CALM      30.02F FOG
$$

VAZ088>098-300800-
SOUTHEAST VIRGINIA

CITY           SKY/WX    TMP DP  RH WIND       PRES   REMARKS
NORFOLK        MOCLDY    75  72  90 S6        30.01F
VIRGINIA BEACH CLOUDY    78  71  79 CALM      30.01F
NORFOLK NAVAL  CLOUDY    75  72  90 S5        30.02F
WEST POINT*    CLOUDY    72  71  98 CALM      30.03F
SALUDA*        CLOUDY    69  69 100 CALM      30.01F
NEWPORT NEWS   FAIR      74  72  93 S6        30.01F
LANGLEY AFB    CLOUDY    73  73 100 S6        30.00F
FORT EUSTIS    CLOUDY    73 N/A N/A S2        30.00F
WILLIAMSBURG*  MOCLDY    73  73 100 S3        30.02F
HR EXEC AP*      N/A     72  70  94 CALM      30.03F
FRANKLIN*      CLOUDY    72  71  97 CALM      30.01F
US460-WAKEFLD  CLOUDY    73  71  93 VRB3      30.01F
$$

VAZ020-022-025-037-045-300800-
WEST CENTRAL AND SOUTHWEST VIRGINIA

CITY           SKY/WX    TMP DP  RH WIND       PRES   REMARKS
STAUNTON*      CLOUDY    59  59  99 CALM      30.10R
WAYNESBORO*    CLOUDY    58  57  96 CALM      30.09S
HOT SPRINGS VA FOG       56  56 100 W3        30.14S VSB 1/2
LYNCHBURG      MOCLDY    62  59  90 CALM      30.07F
DANVILLE       RAIN      63  61  93 N7        30.03F FOG
SOUTH BOSTON*  CLOUDY    63  62  96 CALM      30.03F
MARTINSVILLE   CLOUDY    61  60  96 N3        30.08S
ROANOKE        MOCLDY    61  59  93 N3        30.10F
BLACKSBURG     CLOUDY    58  58  99 CALM      30.14F FOG
DUBLIN*        CLOUDY    57  57 100 CALM      30.12F FOG
MARION*        FAIR      57  56  95 CALM      30.15F FOG
HILLSVILLE*    FOG       56  56 100 N3        30.11F VSB<1/4
RICHLANDS*     FAIR      58  41  53 CALM      30.12S
WISE*          FAIR      61  61 100 CALM      30.12F FOG
ABINGDON*      FAIR      63  60  89 E3        30.09F
$$

MDZ021>025-VAZ099-100-300800-
SOUTHERN MARYLAND AND THE DELMARVA PENINSULA

CITY           SKY/WX    TMP DP  RH WIND       PRES   REMARKS
PATUXENT RIVER CLOUDY    72  70  93 S6        30.00F FOG
BAY BRIDGE APT RAIN      70  66  88 W3        30.01F FOG
LEONARDTOWN    MOCLDY    70  68  94 CALM      30.02F
DOVER          CLOUDY    73  73 100 S10       29.99F
GEORGETOWN     CLOUDY    74  71  91 S9        30.03F
EASTON         LGT RAIN  73  73 100 CALM      30.05F
CAMBRIDGE      CLOUDY    72  72 100 S5        30.01F
SALISBURY      LGT RAIN  72  71  97 S6        30.03S
OCEAN CITY     CLOUDY    70  69  97 SW9       30.03F
WALLOPS ISLAND LGT RAIN  71  69  93 S13       30.04S
ACCOMACK*      RAIN      72  70  94 CALM      30.03S
$$

NCZ012>017-030>032-300800-
NORTH CENTRAL AND EASTERN NORTH CAROLINA

CITY           SKY/WX    TMP DP  RH WIND       PRES   REMARKS
ROANOKE RAPIDS FOG       68  68 100 CALM      30.01S VSB 1/2
RALEIGH        CLOUDY    66  65  96 NE6       30.01F FOG
ELIZABETH CITY CLOUDY    74  73  97 S6        30.02F
AHOSKIE*       CLOUDY    71  70  98 CALM      30.01F FOG
EDENTON*       CLOUDY   N/A N/A N/A SE7       30.02S
CURRITUCK*     CLOUDY    74  74 100 CALM      30.03S
KILL DEVIL HLS CLOUDY    73  72  94 SE3       30.02S
MANTEO         NOT AVBL
CAPE HATTERAS  LGT RAIN  74  71  91 S12       30.02F FOG
TARBORO*       FAIR      71  70  97 CALM      30.01F FOG
GOLDSBORO      NOT AVBL
WASHINGTON     LGT RAIN  73  72  97 CALM      30.00F
GREENVILLE     PTCLDY    72  70  94 CALM      30.02F FOG
NEW BERN       LGT RAIN  73  70  90 S5        30.00F
WILMINGTON     CLOUDY    74  71  91 E3        29.96F
$$

VAZ048-300800-
ELSEWHERE

CITY           SKY/WX    TMP DP  RH WIND       PRES   REMARKS
HARRISBURG PA  LGT RAIN  65  61  87 CALM      30.02F
BALTIMORE      CLOUDY    67  65  93 W3        30.02S
ANNAPOLIS      LGT RAIN  69  67  93 W3        30.01F
ANDREWS AFB    CLOUDY    68  66  93 NW2       30.01F
PHILADELPHIA   HVY RAIN  70  68  93 NW6       30.01S VSB 1
HENDERSON NC   FOG       63  62  99 N3        30.02F VSB 1/2
GREENSBORO     MOCLDY    64  60  87 N9        30.03S
ROCKY MOUNT    MOCLDY    71  71 100 CALM      29.99F
$$

VAZ100-300800-
MARINE

STATION/POSITION TIME  TEMP    WIND        PRES    WAVE   SWELL
                       AIR SEA DIR/SP/G            HT/PER HT/PER
                 (UTC) (F)     (DEG/KT/KT) (MB)    (FT/S) (FT/S)
BRANDYWINE LGT   0600   65     180/ 13/ 13 1017.0F
CAPE MAY NJ      0600   67 70  160/  9/ 12 1016.8F
LEWES DE         0600   73 63  200/  5/  8 1016.7F
15NM E FENWICK I 0650   68 65              1017.0R   3/ 8
OCEAN-CITY-INLET 0600   66 59  230/  6/  7 1017.5F
WACHAPREAGUE VA  0600   73 77  190/ 10/ 12 1016.6S
THOMAS POINT MD  0700   69 70  250/  2/  2 1017.5F
GOOSES REEF MD   0700   69 69   20/  2/  4 1017.0F   0
COVE POINT MD    0600   70     240/  6/  7 1017.6F
SOLOMONS ISLAND  0600   71 66  230/  7/  9   N/A
BISHOPS HEAD MD  0600   73 76  170/  9/ 12 1016.9F
PINEY POINT MD   0600           CALM  /  1   N/A
POTOMAC MD       0700   72 72  160/  4/  4 1015.2F   1
CAMBRIDGE MD     0600   73 69  190/  4/  8 1015.9F
LEWISETTA VA     0600   73 71  220/  4/  5 1016.6F
RAPPAHANNOCK LGT 0600          170/  8/  9 1017.4F
STINGRAY PT      0600   71 69  170/  6/  8 1017.2F   1/ 3
YORK RVR RNG VA  0600   72     180/  4/  5 1016.1F
YORKTOWN VA      0600   73 69  150/  1/  1 1016.3F
JAMESTOWN VA     0700   74 75  160/  6/  6   N/A
DOMINION TERM VA 0600   74     170/  7/  9 1016.4F
KIPTOPEKE VA     0600      70  170/ 12/ 14   N/A
CHES BAY BRIDGE  0600   73 65  140/  6/  7 1016.4F
CAPE HENRY VA    0600   72     160/  6/  9   N/A
CHESAPEAKE LGHT  0600   71     160/ 16/ 16 1017.4F
WILLOUBY STN VA  0600   75     170/ 10/ 11 1017.3F
CAPE HENRY BUOY  0612      69                N/A     4/ 6
1ST LANDING BUOY 0700   70 70  130/  6/  8 1016.2F   2/ 4
CAPE CHARLES BUO 0626      69                N/A     3/ 7   2/ 7
OFFSHORE WE BUOY 0621      70                N/A     4/ 7   3/ 7
64NM E OF VA BCH 0650   68 63  180/ 10/ 12 1017.0F   5/ 7   5/ 7
DUCK PIER NC     0600   65 59  150/ 12/ 13 1016.1F
44100 DUCK FRF   0624      68                N/A     4/ 7
44056 DUCK FRF   0611      62                N/A     3/ 7
OREGON INLET NC  0600   74 78  140/  5/  8 1016.9F
HATTERAS NC      0600   75 77  160/  6/ 10 1016.3F
DIAMOND SHLS NC  0650   78 81  160/ 19/ 21 1016.0F   6/ 8   3/ 8
CAPE LOOKOUT NC  C1F1C2F2C3F3C4F4C5F5C6F6C7F7C8M1C9!



USA.gov is the U.S. government's official web portal to all federal, state and local government web resources and services.